Flag for Australia Weather past 2 weeks in Melbourne, Victoria, Australia

45 °F


Feels Like: 40 °F
Forecast: 48 / 65 °F
Wind: 9 mph from North

Location: Melbourne Airport

Current Time: Nov 27, 2015 at 3:30:39 AM

Latest Report: Nov 27, 2015 at 3:00 AM

Visibility: 10 mi

Pressure: 30.01 "Hg

Humidity: 66%

Dew point: 34 °F

Location of MelbourneLocation

Historic Weather in Melbourne — Graph


Melbourne temperature yesterday

Maximum temperature yesterday: 79 °F (at 12:00 AM)
Minimum temperature yesterday: 46 °F (at 11:00 PM)
Average temperature yesterday: 57 °F

Past Weeks' High & Low Weather Summary

High93 °F (Nov 25, 4:00 PM)100% (Nov 12, 5:30 AM)30.21 "Hg (Nov 12, 5:30 AM)
Low43 °F (Nov 27, 12:30 AM)10% (Nov 17, 4:00 PM)29.36 "Hg (Nov 25, 6:02 PM)
Average63 °F61%29.95 "Hg
* Reported Nov 12 2:00 AM — Nov 27 2:00 AM, Melbourne, Weather by CustomWeather, © 2015

Note: Actual official high and low records may vary slightly from our data, if they occured in-between our weather recording intervals... More about our weather records


Melbourne weather history for previous 24 hours

Time TempWeatherWind HumidityBarometerVisibility
2:00 AM
Fri, Nov 27
45 °FClear.8 mph66%30.01 "Hg10 mi
1:30 AM45 °FClear.8 mph66%30.01 "Hg10 mi
1:00 AM45 °FClear.12 mph61%30.04 "Hg10 mi
12:30 AM43 °FClear.8 mph66%30.04 "Hg10 mi
12:00 AM45 °FClear.8 mph61%30.04 "Hg10 mi
11:00 PM
Thu, Nov 26
46 °FClear.7 mph53%30.04 "Hg10 mi
10:30 PM48 °FClear.8 mph50%30.04 "Hg10 mi
10:00 PM48 °FClear.7 mph50%30.04 "Hg10 mi
9:00 PM52 °FClear.15 mph38%30.01 "Hg10 mi
8:00 PM55 °FSunny.20 mph31%29.98 "Hg10 mi
7:30 PM55 °FSunny.17 mph36%29.98 "Hg10 mi
7:00 PM57 °FSunny.23 mph27%29.95 "Hg10 mi
6:30 PM59 °FSunny.21 mph27%29.92 "Hg10 mi
6:00 PM57 °FSunny.17 mph39%29.92 "Hg10 mi
5:00 PM59 °FSunny.24 mph31%29.89 "Hg10 mi
4:30 PM61 °FScattered showers. Clear.21 mph36%29.89 "HgN/A
4:02 PM59 °FSunny.26 mph34%29.86 "Hg10 mi
3:02 PM59 °FSunny.26 mph36%29.86 "Hg10 mi
2:48 PM61 °FSunny.25 mph29%29.86 "Hg10 mi
2:01 PM63 °FSunny.23 mph25%29.83 "Hg10 mi
1:30 PM61 °FSunny.21 mph34%29.83 "Hg10 mi
1:00 PM61 °FPartly sunny.21 mph31%29.83 "HgN/A
12:30 PM57 °FSprinkles. Scattered clouds.25 mph41%29.83 "HgN/A
12:00 PM55 °FScattered clouds.21 mph38%29.83 "HgN/A
11:30 AM54 °FSprinkles. Partly sunny.26 mph58%29.83 "HgN/A
11:00 AM57 °FScattered showers. Partly sunny.21 mph44%29.80 "HgN/A
10:00 AM55 °FScattered showers. Partly sunny.24 mph41%29.77 "HgN/A
9:30 AM54 °FScattered clouds.22 mph51%29.74 "HgN/A
9:01 AM52 °FSprinkles. Partly sunny.25 mph62%29.74 "HgN/A
9:00 AM52 °FSprinkles. Partly sunny.24 mph54%29.74 "HgN/A
8:30 AM54 °FScattered clouds.24 mph54%29.71 "HgN/A
8:00 AM52 °FScattered clouds.22 mph62%29.68 "HgN/A
7:30 AM50 °FBroken clouds.18 mph71%29.68 "HgN/A
7:00 AM50 °FScattered showers. Broken clouds.23 mph76%29.65 "HgN/A
6:30 AM50 °FBroken clouds.22 mph82%29.62 "HgN/A
6:00 AM50 °FScattered showers. Broken clouds.23 mph82%29.59 "HgN/A
5:30 AM54 °FScattered showers. Partly cloudy.23 mph67%29.56 "HgN/A
5:02 AM55 °FPartly cloudy.18 mph67%29.53 "HgN/A
4:30 AM55 °FPartly cloudy.20 mph72%29.53 "HgN/A
4:00 AM55 °FPartly cloudy.20 mph72%29.50 "HgN/A
3:30 AM55 °FPassing clouds.26 mph77%29.50 "HgN/A
3:00 AM59 °FPassing clouds.22 mph72%29.47 "HgN/A
Weather by CustomWeather, © 2015

See weather overviewHow to use our weather pages